Location: Axtheid
(49.6213°N, 11.8205°E)
Time: 17:52:37
(UTC+00:00)

X-37B - Visible Passes

Search period start: 25 January 2022 00:00
Search period end: 04 February 2022 00:00
Orbit: 334 x 337 km, 45.0° (Epoch: 11 January)

Date Brightness Start Highest point End Pass type
(mag) Time Alt. Az. Time Alt. Az. Time Alt. Az.
27 Jan 3.0 17:39:26 10° SSE 17:39:46 10° SSE 17:39:46 10° SSE visible
28 Jan 2.6 17:58:09 10° SSW 17:59:29 17° S 17:59:29 17° S visible
29 Jan 3.0 16:44:55 10° SSE 16:45:32 10° SSE 16:46:09 10° SE visible
29 Jan 2.7 18:17:57 10° SW 18:19:08 19° SSW 18:19:08 19° SSW visible
30 Jan 2.4 17:03:36 10° SSW 17:05:38 18° SSE 17:07:32 11° ESE visible
30 Jan 3.3 18:38:05 10° WSW 18:38:45 15° SW 18:38:45 15° SW visible
31 Jan 1.9 17:23:23 10° SW 17:25:50 26° SSE 17:27:08 19° SE visible
01 Feb 1.5 17:43:31 10° WSW 17:46:06 31° S 17:46:43 28° SSE visible
02 Feb 1.7 18:03:49 10° WSW 18:06:20 30° S 18:06:20 30° S visible
03 Feb 1.7 16:48:57 10° WSW 16:51:32 31° S 16:54:07 10° ESE visible
03 Feb 2.6 18:24:17 10° WSW 18:25:59 21° SW 18:25:59 21° SW visible
